TimeCST,TemperatureF,Dew PointF,Humidity,Sea Level PressureIn,VisibilityMPH,Wind Direction,Wind SpeedMPH,Gust SpeedMPH,PrecipitationIn,Events,Conditions,WindDirDegrees,DateUTC
12:15 AM,21.2,19.4,93,30.21,5.0,Calm,Calm,-,N/A,,Overcast,0,2013-03-03 06:15:00
12:35 AM,21.2,19.4,93,30.21,5.0,Calm,Calm,-,N/A,,Overcast,0,2013-03-03 06:35:00
12:55 AM,23.0,19.4,86,30.21,6.0,Calm,Calm,-,N/A,,Overcast,0,2013-03-03 06:55:00
1:35 AM,23.0,21.2,93,30.20,6.0,Calm,Calm,-,N/A,,Overcast,0,2013-03-03 07:35:00
1:55 AM,23.0,21.2,93,30.20,6.0,Calm,Calm,-,N/A,,Overcast,0,2013-03-03 07:55:00
2:15 AM,24.8,21.2,86,30.20,6.0,Calm,Calm,-,N/A,,Mostly Cloudy,0,2013-03-03 08:15:00
2:35 AM,23.0,21.2,93,30.18,7.0,Calm,Calm,-,N/A,,Scattered Clouds,0,2013-03-03 08:35:00
2:55 AM,21.2,17.6,86,30.17,5.0,Calm,Calm,-,N/A,,Clear,0,2013-03-03 08:55:00
3:15 AM,19.4,17.6,93,30.16,5.0,Calm,Calm,-,N/A,,Clear,0,2013-03-03 09:15:00
3:35 AM,21.2,17.6,86,30.16,5.0,Calm,Calm,-,N/A,,Clear,0,2013-03-03 09:35:00
3:55 AM,19.4,17.6,93,30.15,3.0,Calm,Calm,-,N/A,,Scattered Clouds,0,2013-03-03 09:55:00
4:15 AM,19.4,19.4,100,30.15,3.0,Calm,Calm,-,N/A,,Partly Cloudy,0,2013-03-03 10:15:00
4:35 AM,21.2,19.4,93,30.14,3.0,Calm,Calm,-,N/A,,Partly Cloudy,0,2013-03-03 10:35:00
4:55 AM,21.2,19.4,93,30.14,5.0,Calm,Calm,-,N/A,,Clear,0,2013-03-03 10:55:00
5:15 AM,21.2,19.4,93,30.13,5.0,Calm,Calm,-,N/A,,Partly Cloudy,0,2013-03-03 11:15:00
5:55 AM,23.0,19.4,86,30.13,7.0,Calm,Calm,-,N/A,,Clear,0,2013-03-03 11:55:00
6:15 AM,21.2,19.4,93,30.13,6.0,Calm,Calm,-,N/A,,Clear,0,2013-03-03 12:15:00
6:55 AM,19.4,17.6,93,30.13,4.0,Calm,Calm,-,N/A,,Clear,0,2013-03-03 12:55:00
7:15 AM,19.4,15.8,86,30.12,4.0,Calm,Calm,-,N/A,,Clear,0,2013-03-03 13:15:00
7:35 AM,21.2,19.4,93,30.12,5.0,Calm,Calm,-,N/A,,Clear,0,2013-03-03 13:35:00
7:55 AM,23.0,19.4,86,30.11,5.0,Calm,Calm,-,N/A,,Clear,0,2013-03-03 13:55:00
8:15 AM,26.6,21.2,80,30.11,7.0,SE,4.6,-,N/A,,Partly Cloudy,130,2013-03-03 14:15:00
8:35 AM,26.6,21.2,80,30.11,7.0,Calm,Calm,-,N/A,,Partly Cloudy,0,2013-03-03 14:35:00
8:55 AM,28.4,21.2,74,30.10,8.0,Calm,Calm,-,N/A,,Mostly Cloudy,0,2013-03-03 14:55:00
9:15 AM,30.2,23.0,75,30.10,7.0,Calm,Calm,-,N/A,,Scattered Clouds,0,2013-03-03 15:15:00
9:35 AM,32.0,23.0,69,30.10,8.0,SE,5.8,-,N/A,,Mostly Cloudy,140,2013-03-03 15:35:00
9:55 AM,32.0,23.0,69,30.09,9.0,SE,5.8,-,N/A,,Mostly Cloudy,140,2013-03-03 15:55:00
10:15 AM,33.8,23.0,65,30.09,8.0,SE,5.8,-,N/A,,Mostly Cloudy,140,2013-03-03 16:15:00
10:35 AM,35.6,23.0,60,30.09,9.0,SE,5.8,-,N/A,,Mostly Cloudy,130,2013-03-03 16:35:00
10:55 AM,35.6,24.8,65,30.08,8.0,SE,5.8,-,N/A,,Mostly Cloudy,130,2013-03-03 16:55:00
11:15 AM,35.6,24.8,65,30.07,8.0,SE,9.2,-,N/A,,Mostly Cloudy,140,2013-03-03 17:15:00
11:35 AM,37.4,23.0,56,30.06,9.0,SE,8.1,-,N/A,,Mostly Cloudy,140,2013-03-03 17:35:00
11:55 AM,37.4,23.0,56,30.04,9.0,SE,9.2,-,N/A,,Mostly Cloudy,140,2013-03-03 17:55:00
12:15 PM,39.2,24.8,56,30.02,9.0,SE,8.1,-,N/A,,Mostly Cloudy,130,2013-03-03 18:15:00
12:35 PM,39.2,26.6,61,30.01,10.0,ESE,8.1,-,N/A,,Partly Cloudy,120,2013-03-03 18:35:00
12:55 PM,39.2,26.6,61,29.99,9.0,ESE,9.2,-,N/A,,Clear,120,2013-03-03 18:55:00
1:15 PM,41.0,26.6,57,29.97,9.0,SE,9.2,-,N/A,,Clear,140,2013-03-03 19:15:00
1:35 PM,42.8,26.6,53,29.96,10.0,SE,12.7,-,N/A,,Partly Cloudy,140,2013-03-03 19:35:00
1:55 PM,42.8,26.6,53,29.95,10.0,SSE,10.4,-,N/A,,Clear,150,2013-03-03 19:55:00
2:35 PM,42.8,26.6,53,29.93,10.0,SE,6.9,-,N/A,,Partly Cloudy,140,2013-03-03 20:35:00
2:55 PM,44.6,26.6,49,29.92,10.0,SSE,9.2,-,N/A,,Clear,150,2013-03-03 20:55:00
3:35 PM,44.6,26.6,49,29.90,10.0,SSE,10.4,-,N/A,,Clear,150,2013-03-03 21:35:00
3:55 PM,44.6,28.4,53,29.90,10.0,ESE,4.6,-,N/A,,Clear,120,2013-03-03 21:55:00
4:15 PM,44.6,28.4,53,29.90,10.0,SE,8.1,-,N/A,,Clear,130,2013-03-03 22:15:00
4:35 PM,44.6,28.4,53,29.90,10.0,ESE,3.5,-,N/A,,Clear,120,2013-03-03 22:35:00
4:55 PM,44.6,28.4,53,29.89,10.0,ESE,8.1,-,N/A,,Clear,120,2013-03-03 22:55:00
5:15 PM,44.6,28.4,53,29.90,10.0,ESE,6.9,-,N/A,,Clear,110,2013-03-03 23:15:00
5:35 PM,42.8,28.4,57,29.89,10.0,ESE,6.9,-,N/A,,Clear,110,2013-03-03 23:35:00
5:55 PM,42.8,28.4,57,29.89,10.0,ESE,6.9,-,N/A,,Clear,110,2013-03-03 23:55:00
6:15 PM,42.8,28.4,57,29.88,10.0,ESE,9.2,-,N/A,,Clear,110,2013-03-04 00:15:00
6:35 PM,42.8,28.4,57,29.89,10.0,ESE,8.1,-,N/A,,Clear,110,2013-03-04 00:35:00
6:55 PM,42.8,28.4,57,29.88,10.0,East,6.9,-,N/A,,Clear,100,2013-03-04 00:55:00
7:15 PM,42.8,28.4,57,29.87,10.0,East,9.2,-,N/A,,Clear,100,2013-03-04 01:15:00
7:35 PM,41.0,28.4,61,29.87,10.0,ESE,9.2,-,N/A,,Clear,110,2013-03-04 01:35:00
7:55 PM,41.0,28.4,61,29.87,10.0,ESE,9.2,-,N/A,,Clear,110,2013-03-04 01:55:00
8:15 PM,42.8,28.4,57,29.87,10.0,ESE,9.2,-,N/A,,Clear,110,2013-03-04 02:15:00
8:35 PM,41.0,28.4,61,29.87,10.0,ESE,9.2,-,N/A,,Clear,120,2013-03-04 02:35:00
8:55 PM,42.8,28.4,57,29.86,10.0,SE,11.5,16.1,N/A,,Clear,130,2013-03-04 02:55:00
9:15 PM,42.8,26.6,53,29.86,10.0,SE,10.4,17.3,N/A,,Clear,130,2013-03-04 03:15:00
9:35 PM,42.8,26.6,53,29.87,10.0,SE,9.2,-,N/A,,Clear,130,2013-03-04 03:35:00
9:55 PM,42.8,26.6,53,29.86,10.0,SE,10.4,-,N/A,,Clear,130,2013-03-04 03:55:00
10:15 PM,42.8,26.6,53,29.86,10.0,SE,10.4,-,N/A,,Clear,130,2013-03-04 04:15:00
10:35 PM,42.8,28.4,57,29.86,10.0,ESE,9.2,-,N/A,,Clear,120,2013-03-04 04:35:00
10:55 PM,41.0,28.4,61,29.85,10.0,SE,9.2,-,N/A,,Clear,130,2013-03-04 04:55:00
11:15 PM,41.0,28.4,61,29.84,10.0,ESE,10.4,-,N/A,,Clear,120,2013-03-04 05:15:00
11:35 PM,41.0,28.4,61,29.84,10.0,ESE,11.5,16.1,N/A,,Clear,120,2013-03-04 05:35:00
11:55 PM,41.0,28.4,61,29.83,10.0,SE,11.5,-,N/A,,Clear,130,2013-03-04 05:55:00